Вернуться в каталог

ONEWEB-0383

АктивенСвязьPO
NORAD 49309·PAYLOAD·🇬🇧 United Kingdom

Запущен Oct 14, 2021 с Vostochny Cosmodrome

Loading…

Ближайшие Пролёты (ближайшие 24 часа)

TLE

СвежийSource: CelesTrak SupGP

Эпоха: Sep 14, 2026, 16:55 UTC

1 49309C 21090AG  26257.70536296 -.00002704  00000+0 -73010-2 0  2571
2 49309  87.8902 271.8499 0002103  93.6258 303.9304 13.14506326    14

Отслеживайте ONEWEB-0383 в реальном времени с AllMySat

Download on the App Store